This is the latest recevied weather packets stored in our database for station/object N5ZP. If no packets are shown the sender has not sent any weather packets the latest 10 day(s).
| Time | Temp. | Humidity | Pressure | Rain* | Wind** | Luminosity | Snow |
|---|---|---|---|---|---|---|---|
| 1777418864 | 22.22° C | 95% | 1006.4 hPa | 0 mm | - | 180 W/m² | - |
| 1777418561 | 22.22° C | 95% | 1005.6 hPa | 0 mm | - | 180 W/m² | - |
| 1777418257 | 22.22° C | 95% | 1005.8 hPa | 0 mm | - | 204 W/m² | - |
| 1777417953 | 21.67° C | 95% | 1006.4 hPa | 0 mm | - | 210 W/m² | - |
| 1777417649 | 21.67° C | 95% | 1006 hPa | 0 mm | - | 140 W/m² | - |
| 1777417344 | 22.22° C | 96% | 1006.7 hPa | 0 mm | - | 149 W/m² | - |
| 1777417042 | 21.11° C | 96% | 1006.8 hPa | 0 mm | - | 281 W/m² | - |
| 1777416742 | 20.56° C | 95% | 1005.9 hPa | 1.78 mm | - | 107 W/m² | - |
| 1777416438 | 20° C | 95% | 1006.9 hPa | 4.32 mm | - | 40 W/m² | - |
| 1777416134 | 20° C | 95% | 1006.9 hPa | 4.32 mm | - | 40 W/m² | - |
| 1777415828 | 20° C | 94% | 1006.7 hPa | 4.32 mm | - | 28 W/m² | - |
| 1777415524 | 20° C | 94% | 1006.6 hPa | 1.78 mm | - | 19 W/m² | - |
| 1777415220 | 20° C | 94% | 1007.3 hPa | 3.05 mm | - | 12 W/m² | - |
| 1777414915 | 20° C | 94% | 1007.5 hPa | 1.27 mm | - | 8 W/m² | - |
| 1777414614 | 20° C | 94% | 1007.5 hPa | 1.27 mm | - | 8 W/m² | - |
| 1777414310 | 20° C | 94% | 1007.5 hPa | 1.27 mm | - | 8 W/m² | - |
| 1777414005 | 22.22° C | 88% | 1006.4 hPa | 28.7 mm | - | 2 W/m² | - |
| 1777413700 | 22.22° C | 88% | 1006.4 hPa | 28.7 mm | - | 2 W/m² | - |
| 1777413396 | 22.78° C | 86% | 1007 hPa | 19.81 mm | - | 1 W/m² | - |
| 1777413092 | 26.67° C | 80% | 1007 hPa | 0 mm | - | 1 W/m² | - |
| 1777412787 | 26.67° C | 81% | 1004.2 hPa | 0 mm | - | 4 W/m² | - |
| 1777412487 | 26.67° C | 82% | 1004.2 hPa | 0 mm | - | 6 W/m² | - |
| 1777412184 | 26.67° C | 82% | 1004.3 hPa | 0 mm | - | 11 W/m² | - |
| 1777411881 | 26.67° C | 81% | 1005.1 hPa | 0 mm | - | 13 W/m² | - |
| 1777411579 | 26.67° C | 82% | 1005.9 hPa | 0 mm | - | 16 W/m² | - |
* Rain latest hour (hover to see other rain measurements)
** Current wind speed in m/s (hover to see current wind gust speed)